Location: Aiyede
(8.4833°N, 4.4500°E)
Time: 14:09:46
(UTC+00:00)

Envisat - Pass Details

Date: 26 November 2020
Orbit: 764 x 766 km, 98.1° (Epoch: 18 January)

Event Time Altitude Azimuth Distance (km) Brightness Sun altitude
Rises 17:50:13 0° 191° (S) 3,222 6.7 -7.8°
Reaches altitude 10° 17:52:50 10° 203° (SSW) 2,296 6.1 -8.4°
Maximum altitude 17:57:01 26° 259° (W) 1,463 5.5 -9.4°
Drops below altitude 10° 18:01:12 10° 315° (NW) 2,295 5.8 -10.3°
Sets 18:03:51 0° 328° (NNW) 3,221 6.4 -11.0°
